Location: Unspecified
(0.0000°N, 0.0000°E)
Time: 05:18:38
(UTC+00:00)

Vanguard 1 Rocket - Visible Passes

Search period start: 18 December 2017 00:00
Search period end: 28 December 2017 00:00
Orbit: 656 x 4222 km, 34.3° (Epoch: 17 December)

Date Brightness Start Highest point End Pass type
(mag) Time Alt. Az. Time Alt. Az. Time Alt. Az.
18 Dec 10.5 01:56:33 52° SW 01:57:53 53° SW 02:16:16 10° SE visible
18 Dec 11.1 04:18:40 10° WSW 04:30:45 18° SSW 04:39:38 10° S visible
18 Dec 10.9 19:22:24 10° NNW 19:33:56 21° NNE 19:36:21 20° NE visible
18 Dec 11.0 21:47:30 10° NW 22:31:19 14° ESE 22:33:21 10° ESE visible
19 Dec 10.5 00:48:31 61° SSE 00:48:31 61° SSE 01:04:26 10° SE visible
19 Dec 11.0 03:05:43 22° WSW 03:15:57 29° SW 03:29:54 10° SSE visible
19 Dec 10.9 18:13:19 10° N 18:18:29 12° NNE 18:24:41 10° NE visible
19 Dec 10.6 20:35:56 10° NNW 20:46:57 34° N 20:46:57 34° N visible
19 Dec 10.9 23:02:56 10° NW 23:40:23 41° SE 23:51:29 10° SE visible
20 Dec 10.8 01:57:34 43° SW 02:00:53 44° SW 02:19:03 10° SSE visible
20 Dec 11.3 04:25:36 10° SW 04:35:02 15° SSW 04:42:23 10° S visible
20 Dec 10.7 19:25:16 10° NNW 19:37:56 25° NNE 19:40:20 24° NE visible
20 Dec 10.8 21:50:18 10° NW 22:32:07 21° ESE 22:37:01 10° ESE visible
21 Dec 10.6 00:49:17 58° S 00:49:17 58° S 01:07:17 10° SE visible
21 Dec 11.2 03:06:26 15° WSW 03:19:41 24° SSW 03:32:43 10° SSE visible
21 Dec 10.8 18:16:00 10° N 18:22:59 14° NNE 18:31:57 10° NE visible
21 Dec 10.4 20:38:42 10° NNW 21:23:41 - ESE 20:51:16 42° NNE visible
21 Dec 10.8 23:06:01 10° NW 23:40:50 48° SE 23:54:29 10° SE visible
22 Dec 11.0 01:57:59 34° WSW 02:04:08 37° SW 02:21:50 10° SSE visible
22 Dec 11.4 04:32:34 10° SW 04:39:39 13° SSW 04:45:27 10° S visible
22 Dec 10.5 19:28:02 10° NNW 19:41:31 30° NE 19:45:04 29° NE visible
22 Dec 10.7 21:53:11 10° NW 22:32:13 29° ESE 22:40:21 10° ESE visible
23 Dec 10.7 00:49:20 52° SSW 00:49:20 52° SSW 01:10:04 10° SE visible
23 Dec 11.3 03:07:59 10° WSW 03:23:50 21° SSW 03:35:42 10° SSE visible
23 Dec 10.7 18:18:33 10° N 18:27:07 18° NNE 18:38:53 10° ENE visible
23 Dec 10.2 20:41:30 10° NW 21:23:19 12° ESE 21:24:27 10° ESE visible
23 Dec 10.7 23:09:19 10° WNW 23:40:24 55° SSE 23:57:20 10° SE visible
24 Dec 11.2 01:57:30 24° WSW 02:07:45 31° SSW 02:24:40 10° SSE visible
24 Dec 11.4 04:38:46 10° SSW 04:44:31 12° SSW 04:49:22 10° S visible
24 Dec 10.4 19:30:46 10° NNW 19:44:46 37° NE 19:51:07 32° ENE visible
24 Dec 10.4 21:56:13 10° NW 22:31:06 40° SE 22:43:25 10° SE visible
25 Dec 10.9 00:48:08 43° SW 00:51:34 44° SW 01:12:48 10° SSE visible
25 Dec 11.5 03:14:30 10° WSW 03:28:23 18° SSW 03:39:01 10° SSE visible
25 Dec 10.5 18:21:04 10° N 18:30:52 22° NE 18:45:13 10° E visible
25 Dec 10.1 20:44:23 10° NW 21:01:55 66° NE 21:28:00 10° ESE visible
25 Dec 10.7 23:12:53 10° WNW 23:38:03 59° SSW 00:00:04 10° SE visible
26 Dec 11.4 01:54:58 14° WSW 02:11:45 26° SSW 02:27:39 10° SSE visible
26 Dec 11.5 04:43:24 10° SSW 04:49:31 12° S 04:54:33 10° SSE visible
26 Dec 10.2 19:33:32 10° NNW 19:47:46 45° NE 20:10:37 10° ESE visible
26 Dec 10.3 21:59:27 10° WNW 22:25:32 65° SSE 22:46:17 10° SE visible
27 Dec 11.1 00:32:53 10° W 00:55:05 37° SSW 01:15:34 10° SSE visible
27 Dec 11.5 03:20:51 10° SW 03:33:15 16° SSW 03:42:52 10° SSE visible
27 Dec 10.3 18:23:39 10° NNW 18:34:15 27° NE 18:50:51 10° E visible
27 Dec 10.1 20:47:24 10° NW 21:04:39 78° NE 21:31:12 10° ESE visible
